User: anonymous   Login
Location: Arrakis Observatory
(44.1122°N, 95.7153°W)
Time: 06:36:01
(UTC-05:00)
Language:

Iridium 35 - Orbit

View from above orbital plane
View from above orbital plane
View from above satellite
View from above satellite

Ground track
Ground track

The orbit data is extracted from the following two-line orbital elements,

1 24966U 97056B   16208.24638229  .00000151  00000-0  46753-4 0  9993
2 24966  86.3961  94.9807 0002241  84.3771 275.7681 14.34213948985814
Epoch (UTC): 26 July 2016 05:54:47
Eccentricity: 0.0002241
inclination: 86.3961°
perigee height: 776 km
apogee height: 779 km
right ascension of ascending node: 94.9807°
argument of perigee: 84.3771°
revolutions per day: 14.34213948
mean anomaly at epoch: 275.7681°
orbit number at epoch: 98581

The dashed part of the orbit path shows where the satellite is in the earth's shadow,  

DLR